DW5920 Weather Reports


time (UTC)temp
F
wind
direction
speed
knots
gust
knots
rain 1hr
in
rain 24hr
in
rain mn
in
humidity
%
barometer
mb
20260507044503 56 67 0.0 1.7 0.00 0.00 0.00 84 1008.4
20260507043818 56 68 0.0 0.9 0.00 0.00 0.00 84 1008.4
20260507042703 55 0 0.0 0.0 0.00 0.00 0.00 84 1008.2
20260507042018 55 79 0.0 0.9 0.00 0.00 0.00 84 1008.2
20260507040903 55 75 0.0 0.9 0.00 0.00 0.00 84 1008.2
20260507040003 55 0 0.0 0.0 0.00 0.00 0.00 84 1008.1
20260507035403 55 78 0.0 0.9 0.00 0.00 0.00 83 1008.1
20260507034503 55 77 0.0 0.9 0.00 0.00 0.00 83 1008.0
20260507033603 55 0 0.0 0.0 0.00 0.00 0.00 83 1007.9
20260507032921 55 0 0.0 0.0 0.00 0.00 0.00 83 1008.0
20260507031803 55 0 0.0 0.0 0.00 0.00 0.00 84 1008.0
20260507030903 55 0 0.0 0.0 0.00 0.00 0.00 83 1008.1
20260507030003 55 0 0.0 0.0 0.00 0.00 0.00 81 1008.0
20260507025403 55 0 0.0 0.0 0.00 0.00 0.00 82 1007.9
20260507024503 55 72 0.0 0.9 0.00 0.00 0.00 83 1007.9
20260507023603 55 79 0.0 0.9 0.00 0.00 0.00 82 1007.9
20260507022703 55 0 0.0 0.0 0.00 0.00 0.00 82 1007.9
20260507021803 55 0 0.0 0.0 0.00 0.00 0.00 82 1007.9
20260507021116 55 0 0.0 0.0 0.00 0.00 0.00 81 1007.9
20260507020003 56 0 0.0 0.0 0.00 0.00 0.00 81 1007.8
20260507015403 56 344 0.0 0.9 0.00 0.00 0.00 82 1008.0
20260507014503 56 334 0.0 2.6 0.00 0.00 0.00 82 1008.0
20260507013603 56 333 0.0 1.7 0.00 0.00 0.00 80 1008.0
20260507012703 56 0 0.0 0.0 0.00 0.00 0.00 77 1008.1
20260507011803 56 0 0.0 0.0 0.00 0.00 0.00 77 1008.1
20260507011117 57 0 0.0 0.0 0.00 0.00 0.00 76 1008.1
20260507010003 58 0 0.0 0.0 0.00 0.00 0.00 75 1008.3
20260507005403 58 0 0.0 0.0 0.00 0.00 0.00 78 1008.3
20260507004503 59 0 0.0 0.0 0.00 0.00 0.00 75 1008.4
20260507003603 59 0 0.0 0.0 0.00 0.00 0.00 76 1008.3
20260507002703 59 0 0.0 0.0 0.00 0.00 0.00 74 1008.4
20260507001803 59 0 0.0 0.0 0.00 0.00 0.00 73 1008.4
20260507000903 60 0 0.0 0.0 0.00 0.00 0.00 71 1008.4
20260507000003 60 0 0.0 0.0 0.00 0.00 0.00 71 1008.5
20260506235403 60 0 0.0 0.0 0.00 0.00 0.00 71 1008.5
20260506234503 60 0 0.0 0.0 0.00 0.00 0.00 71 1008.6
20260506233603 60 0 0.0 0.0 0.00 0.00 0.00 70 1008.5
20260506232703 60 178 0.0 2.6 0.00 0.00 0.00 70 1008.6
20260506232021 60 185 0.0 4.3 0.00 0.00 0.00 69 1008.6
20260506230903 61 170 0.9 3.5 0.00 0.00 0.00 67 1008.6
20260506230221 61 178 0.9 5.2 0.00 0.00 0.00 66 1008.6
20260506225403 61 180 0.0 4.3 0.00 0.00 0.00 65 1008.6
20260506224503 62 191 0.0 0.9 0.00 0.00 0.00 64 1008.6
20260506223603 62 0 0.0 0.0 0.00 0.00 0.00 63 1008.5
20260506222703 62 0 0.0 0.0 0.00 0.00 0.00 62 1008.5
20260506221803 62 245 0.0 2.6 0.00 0.00 0.00 62 1008.5
20260506220903 62 231 0.0 1.7 0.00 0.00 0.00 61 1008.4
20260506220004 63 232 0.0 2.6 0.00 0.00 0.00 60 1008.5
20260506215403 63 237 0.0 2.6 0.00 0.00 0.00 60 1008.5
20260506214503 63 0 0.0 0.0 0.00 0.00 0.00 59 1008.4
20260506213603 63 0 0.0 0.0 0.00 0.00 0.00 59 1008.4
20260506212703 63 0 0.0 0.0 0.00 0.00 0.00 59 1008.4
20260506211803 64 252 0.0 1.7 0.00 0.00 0.00 58 1008.2
20260506210903 64 0 0.0 0.0 0.00 0.00 0.00 58 1008.2
20260506210217 64 0 0.0 0.0 0.00 0.00 0.00 58 1008.2
20260506205403 65 291 0.0 3.5 0.00 0.00 0.00 57 1008.0
20260506204503 65 276 0.0 5.2 0.00 0.00 0.00 57 1007.9
20260506203603 65 271 0.0 4.3 0.00 0.00 0.00 56 1007.8
20260506202920 66 276 0.0 4.3 0.00 0.00 0.00 55 1007.8
20260506201803 66 271 0.0 3.5 0.00 0.00 0.00 54 1007.6
20260506200903 67 248 0.0 4.3 0.00 0.00 0.00 53 1007.6
20260506200217 67 270 0.9 4.3 0.00 0.00 0.00 53 1007.5
20260506195619 67 277 1.7 7.8 0.00 0.00 0.00 52 1007.5
20260506194503 68 281 1.7 7.0 0.00 0.00 0.00 51 1007.3
20260506193603 68 278 0.9 7.8 0.00 0.00 0.00 50 1007.3
20260506192703 69 284 0.9 6.1 0.00 0.00 0.00 49 1007.2
20260506191803 70 278 0.9 6.1 0.00 0.00 0.00 47 1007.1
20260506190903 71 273 0.9 7.8 0.00 0.00 0.00 46 1007.0
20260506190218 72 271 1.7 12.2 0.00 0.00 0.00 45 1006.9
20260506185620 72 280 1.7 10.4 0.00 0.00 0.00 44 1006.9
20260506184503 73 281 0.9 7.8 0.00 0.00 0.00 44 1006.8
20260506183603 74 265 1.7 7.8 0.00 0.00 0.00 43 1006.8
20260506182703 74 255 1.7 8.7 0.00 0.00 0.00 42 1006.8
20260506181803 75 249 2.6 10.4 0.00 0.00 0.00 41 1006.7
20260506180903 75 247 4.3 11.3 0.00 0.00 0.00 41 1006.7
20260506180004 76 247 3.5 10.4 0.00 0.00 0.00 40 1006.8
20260506175620 76 246 3.5 10.4 0.00 0.00 0.00 39 1006.7
20260506174718 76 251 4.3 10.4 0.00 0.00 0.00 39 1006.7
20260506173603 78 234 2.6 8.7 0.00 0.00 0.00 36 1006.6
20260506172703 79 204 1.7 7.0 0.00 0.00 0.00 33 1006.5
20260506172020 81 194 0.9 5.2 0.00 0.00 0.00 31 1006.6
20260506170903 80 249 0.0 0.9 0.00 0.00 0.00 29 1006.6
20260506170219 80 238 0.0 0.9 0.00 0.00 0.00 28 1006.7
20260506165403 80 251 0.9 6.1 0.00 0.00 0.00 29 1006.7
20260506164503 80 189 0.9 6.1 0.00 0.00 0.00 30 1006.8
20260506163821 79 136 1.7 6.1 0.00 0.00 0.00 30 1006.8
20260506162703 79 139 0.9 7.0 0.00 0.00 0.00 31 1006.9
20260506161803 79 143 0.9 6.1 0.00 0.00 0.00 31 1006.9
20260506160903 79 142 0.9 5.2 0.00 0.00 0.00 30 1007.0
20260506160220 79 138 0.9 5.2 0.00 0.00 0.00 30 1007.0
20260506155617 79 208 0.9 6.1 0.00 0.00 0.00 29 1007.0
20260506154503 78 227 1.7 6.1 0.00 0.00 0.00 30 1007.2
20260506153603 79 208 1.7 9.6 0.00 0.00 0.00 31 1007.2
20260506152703 78 145 0.9 5.2 0.00 0.00 0.00 31 1007.4
20260506151803 78 113 1.7 7.0 0.00 0.00 0.00 31 1007.4
20260506150903 78 126 0.9 5.2 0.00 0.00 0.00 30 1007.7
20260506150221 78 201 2.6 7.8 0.00 0.00 0.00 31 1007.7
20260506145403 78 232 1.7 6.1 0.00 0.00 0.00 31 1007.8
20260506144503 78 277 0.9 6.1 0.00 0.00 0.00 31 1008.0
20260506143603 77 316 0.9 6.1 0.00 0.00 0.00 32 1008.1
20260506142703 78 49 0.0 3.5 0.00 0.00 0.00 31 1008.3
20260506141803 78 175 0.9 6.1 0.00 0.00 0.00 31 1008.5
20260506140903 77 151 0.9 7.0 0.00 0.00 0.00 31 1008.5
20260506140003 78 230 0.9 4.3 0.00 0.00 0.00 32 1008.6
20260506135403 77 290 0.9 4.3 0.00 0.00 0.00 32 1008.7
20260506134503 77 130 0.0 3.5 0.00 0.00 0.00 33 1008.7
20260506133603 76 117 0.9 4.3 0.00 0.00 0.00 33 1008.8
20260506132703 76 100 0.9 5.2 0.00 0.00 0.00 33 1009.0
20260506131803 76 253 1.7 4.3 0.00 0.00 0.00 34 1009.2
20260506131119 76 262 1.7 5.2 0.00 0.00 0.00 33 1009.3
20260506130003 76 5 0.9 5.2 0.00 0.00 0.00 34 1009.4
20260506125403 76 338 1.7 5.2 0.00 0.00 0.00 34 1009.4
20260506124721 75 349 0.9 5.2 0.00 0.00 0.00 35 1009.5
20260506123603 76 257 0.9 5.2 0.00 0.00 0.00 35 1009.7
20260506122703 74 279 0.9 6.1 0.00 0.00 0.00 35 1009.7
20260506121803 74 322 2.6 6.1 0.00 0.00 0.00 36 1009.8
20260506120903 74 102 1.7 6.1 0.00 0.00 0.00 35 1009.9
20260506120003 74 286 1.7 7.0 0.00 0.00 0.00 35 1010.0
20260506115403 74 277 0.9 4.3 0.00 0.00 0.00 35 1010.0
20260506114503 74 242 2.6 5.2 0.00 0.00 0.00 35 1010.1
20260506113603 74 219 0.9 4.3 0.00 0.00 0.00 34 1010.1
20260506112703 74 193 0.9 4.3 0.00 0.00 0.00 34 1010.2
20260506111803 73 92 0.9 5.2 0.00 0.00 0.00 36 1010.2
20260506111121 73 102 1.7 5.2 0.00 0.00 0.00 36 1010.3
20260506110003 73 134 1.7 4.3 0.00 0.00 0.00 36 1010.4
20260506105403 74 176 0.9 4.3 0.00 0.00 0.00 38 1010.5
20260506104503 73 174 0.9 3.5 0.00 0.00 0.00 40 1010.6
20260506103603 72 136 1.7 6.1 0.00 0.00 0.00 42 1010.6
20260506102703 71 122 1.7 6.1 0.00 0.00 0.00 44 1010.7
20260506101803 70 101 1.7 5.2 0.00 0.00 0.00 46 1010.9
20260506100903 70 90 2.6 5.2 0.00 0.00 0.00 45 1010.9
20260506100003 70 107 1.7 5.2 0.00 0.00 0.00 47 1010.8
20260506095403 69 107 2.6 5.2 0.00 0.00 0.00 47 1010.8
20260506094503 69 109 1.7 5.2 0.00 0.00 0.00 48 1010.8
20260506093603 68 99 2.6 5.2 0.00 0.00 0.00 48 1010.9
20260506092917 68 112 2.6 5.2 0.00 0.00 0.00 48 1010.8
20260506091803 68 112 1.7 4.3 0.00 0.00 0.00 51 1010.9
20260506090903 68 137 0.9 4.3 0.00 0.00 0.00 50 1010.9
20260506090003 68 124 0.9 3.5 0.00 0.00 0.00 52 1011.0
20260506085404 68 125 0.9 3.5 0.00 0.00 0.00 51 1011.0
20260506084503 67 91 0.9 3.5 0.00 0.00 0.00 53 1011.0
20260506083603 67 4 0.0 1.7 0.00 0.00 0.00 53 1011.0
20260506082703 65 98 0.9 5.2 0.00 0.00 0.00 54 1011.1
20260506081803 65 99 0.0 3.5 0.00 0.00 0.00 54 1011.0
20260506080903 64 341 0.9 2.6 0.00 0.00 0.00 58 1011.1
20260506072703 61 320 1.7 4.3 0.00 0.00 0.00 65 1011.1
20260506071803 60 325 1.7 3.5 0.00 0.00 0.00 67 1011.1
20260506070903 59 324 1.7 4.3 0.00 0.00 0.00 68 1011.3
20260506062016 55 341 0.9 3.5 0.00 0.00 0.00 81 1011.2
20260506060903 54 330 1.7 3.5 0.00 0.00 0.00 81 1011.1
20260506050903 53 0 0.0 0.0 0.00 0.00 0.00 77 1010.8